Satellite: SO-50
Catalog number: 27607
Epoch time:      12283.67780720
Element set:    0886
Inclination:      064.5578 deg
RA of node:       306.5852 deg
Eccentricity:    0.0075347
Arg of perigee:   225.5038 deg
Mean anomaly:     133.9907 deg
Mean motion:   14.72558771 rev/day
Decay rate:       5.60e-06 rev/day^2
Epoch rev:           52682
Checksum:              340

Satellite: CO-55
Catalog number: 27844
Epoch time:      12284.60521043
Element set:     481
Inclination:      098.7042 deg
RA of node:       291.3193 deg
Eccentricity:    0.0008807
Arg of perigee:   248.0684 deg
Mean anomaly:     111.9609 deg
Mean motion:   14.21086593 rev/day
Decay rate:       3.33e-06 rev/day^2
Epoch rev:           48128
Checksum:              307

Satellite: CO-57
Catalog number: 27848
Epoch time:      12285.54480205
Element set:     431
Inclination:      098.7102 deg
RA of node:       291.6327 deg
Eccentricity:    0.0008744
Arg of perigee:   251.0054 deg
Mean anomaly:     109.0207 deg
Mean motion:   14.20830680 rev/day
Decay rate:       2.83e-06 rev/day^2
Epoch rev:           48135
Checksum:              287

Satellite: AO-51
Catalog number: 28375
Epoch time:      12284.83342281
Element set:     385
Inclination:      098.1617 deg
RA of node:       244.8210 deg
Eccentricity:    0.0084717
Arg of perigee:   050.7903 deg
Mean anomaly:     310.0780 deg
Mean motion:   14.41000494 rev/day
Decay rate:       2.84e-06 rev/day^2
Epoch rev:           43542
Checksum:              287

Satellite: CP3
Catalog number: 31129
Epoch time:      12285.51891659
Element set:     285
Inclination:      097.8866 deg
RA of node:       286.4768 deg
Eccentricity:    0.0101645
Arg of perigee:   120.8638 deg
Mean anomaly:     240.2565 deg
Mean motion:   14.53242548 rev/day
Decay rate:       7.50e-06 rev/day^2
Epoch rev:           29087
Checksum:              335

Satellite: CO-65
Catalog number: 32785
Epoch time:      12285.82739799
Element set:     439
Inclination:      097.7851 deg
RA of node:       344.0508 deg
Eccentricity:    0.0015433
Arg of perigee:   045.0394 deg
Mean anomaly:     315.1980 deg
Mean motion:   14.83260861 rev/day
Decay rate:      1.332e-05 rev/day^2
Epoch rev:           24105
Checksum:              322

Satellite: PRISM
Catalog number: 33493
Epoch time:      12285.76063345
Element set:     153
Inclination:      098.1874 deg
RA of node:       069.2623 deg
Eccentricity:    0.0017663
Arg of perigee:   279.1770 deg
Mean anomaly:     080.7452 deg
Mean motion:   14.84489606 rev/day
Decay rate:      3.375e-05 rev/day^2
Epoch rev:           20104
Checksum:              313

Satellite: SOHLA-1
Catalog number: 33496
Epoch time:      12284.88701744
Element set:    0875
Inclination:      098.1143 deg
RA of node:       035.9254 deg
Eccentricity:    0.0007332
Arg of perigee:   039.9014 deg
Mean anomaly:     320.2718 deg
Mean motion:   14.70069173 rev/day
Decay rate:       5.20e-06 rev/day^2
Epoch rev:           19924
Checksum:              300

Satellite: SO-67
Catalog number: 35870
Epoch time:      12285.77108605
Element set:     409
Inclination:      097.2227 deg
RA of node:       317.4142 deg
Eccentricity:    0.0003816
Arg of perigee:   111.2676 deg
Mean anomaly:     339.2774 deg
Mean motion:   15.24768338 rev/day
Decay rate:      5.041e-05 rev/day^2
Epoch rev:           17037
Checksum:              313

Satellite: TISAT-1
Catalog number: 36799
Epoch time:      12285.79743615
Element set:     427
Inclination:      098.0542 deg
RA of node:       002.9583 deg
Eccentricity:    0.0015803
Arg of perigee:   151.9037 deg
Mean anomaly:     208.2970 deg
Mean motion:   14.82356671 rev/day
Decay rate:      2.228e-05 rev/day^2
Epoch rev:           12176
Checksum:              317

Satellite: STUDSAT
Catalog number: 36801
Epoch time:      12284.84696881
Element set:    0507
Inclination:      098.0606 deg
RA of node:       003.2889 deg
Eccentricity:    0.0013275
Arg of perigee:   140.8336 deg
Mean anomaly:     219.3846 deg
Mean motion:   14.85429232 rev/day
Decay rate:      4.941e-05 rev/day^2
Epoch rev:           12168
Checksum:              316

Satellite: FO-69
Catalog number: 37227
Epoch time:      12285.31789631
Element set:    0309
Inclination:      071.9697 deg
RA of node:       055.6713 deg
Eccentricity:    0.0015407
Arg of perigee:   106.3938 deg
Mean anomaly:     253.8951 deg
Mean motion:   14.77208102 rev/day
Decay rate:       8.82e-06 rev/day^2
Epoch rev:           05324
Checksum:              324

Satellite: FO-70
Catalog number: 37380
Epoch time:      12285.47854676
Element set:    0311
Inclination:      071.9735 deg
RA of node:       056.0236 deg
Eccentricity:    0.0015903
Arg of perigee:   102.9186 deg
Mean anomaly:     257.3770 deg
Mean motion:   14.76956800 rev/day
Decay rate:       9.56e-06 rev/day^2
Epoch rev:           05315
Checksum:              318

Satellite: ALMASAT-1
Catalog number: 38078
Epoch time:      12285.79470628
Element set:     642
Inclination:      069.4762 deg
RA of node:       052.3767 deg
Eccentricity:    0.0737386
Arg of perigee:   102.3210 deg
Mean anomaly:     266.1304 deg
Mean motion:   14.13711995 rev/day
Decay rate:     2.4834e-04 rev/day^2
Epoch rev:            3400
Checksum:              306

